Find Starlink 31776

NORAD ID: 59603 Int'l Des: 2024-080 Owner: SPXS Country: US Constellation: starlink operational
LEOCIRCULAR

当前视图

正在加载3D地球...

About Starlink 31776

Starlink 31776 (NORAD 59603) is a starlink constellation satellite (v2 mini) launched Apr 28, 2024 by SPXS of US. It operates in LEO, CIRCULAR orbit with a mass of 730.00 kg.

关于 Starlink 31776

正在加载描述...

即将过境

Passes for default location (London). Set your location on the main map for personalized predictions.

高度历史

Loading altitude history...

两行轨道根数

1 59603U 24080C 26190.92321140 -.00001194 00000-0 -33888-4 0 9998
2 59603 43.0044 71.3227 0001269 267.9509 92.1198 15.27576037123186
Epoch: Jul 9, 2026 • Age: 18 hours

当前状态

高度 484.3 km
远地点 / 近地点 N/A
速度 7.62 km/s
星下点 -9.03°S, 84.31°E
发射日期 Apr 28, 2024
运行时间 2.1 years
类型 internet

技术详情

分类 Payload
质量 730.00 kg
干质量 700.00 kg
总质量 730.00 kg
长度 0.30 m
直径 4.10 m
跨度 29.00 m
形状 Box + pan
制造商 SPXS
平台类型 Starlink V2M
阶段状态 In Orbit
所有者/国家 SPXS/US

Most Searched